Regional Weather Roundup
Issued by NWS Kansas City/Pleasant Hill, MO

Home | Current Version | Previous Version | Graphics & Text | Print | Product List | Glossary Off
Versions: 1 2 3 4 5 6 7 8 9 10 11 12 13 14 15 16 17 18 19 20 21 22 23 24 25 26 27 28 29 30 31 32 33 34 35 36 37 38 39 40 41 42 43 44 45 46 47 48 49 50

000
ASUS43 KEAX 262204
RWREAX

WEATHER ROUNDUP FOR EASTERN KANSAS AND NORTHWEST MISSOURI
NATIONAL WEATHER SERVICE KANSAS CITY/PLEASANT HILL MO
400 PM CST MON JAN 26 2015

KSZ040-057-103>105-MOZ028-029-037-043-262300-
...KANSAS CITY METROPOLITAN AREA...

CITY           SKY/WX    TMP DP  RH WIND       PRES   REMARKS
K.C. INTL      MOSUNNY   60  34  37 NW13      29.91R
K.C. DOWNTOWN  SUNNY     62  33  33 NW16G25   29.90R
LEES SUMMIT    SUNNY     60  34  37 NW16      29.91R
OLATHE - IXD   SUNNY     61  36  39 NW16      29.92S
OLATHE - OJC   SUNNY     61  34  36 NW15      29.91S
LAWRENCE       SUNNY     63  33  32 N16       29.92S

$$

MOZ001>008-011>017-020>025-030>033-038>040-044>046-053-054-262300-
...NORTHERN AND CENTRAL MISSOURI...

CITY           SKY/WX    TMP DP  RH WIND       PRES   REMARKS
ST. JOSEPH     SUNNY     60  33  36 N21       29.93R
MOSBY          CLEAR     59  34  38 NW14G20   29.90S
WARRENSBURG    SUNNY     57  34  41 NW9       29.90S
WHITEMAN AFB   SUNNY     57  35  44 NW10      29.89R
CLINTON        SUNNY     57  37  47 W14G20    29.91F
SEDALIA        SUNNY     55  37  50 W17G24    29.90R
WARSAW         NOT AVBL
MARSHALL       SUNNY     55  39  54 W14G20    29.89R
CHILLICOTHE      N/A     57  36  45 NW10G20   29.88S
MOBERLY        SUNNY     52  34  50 NW16G23   29.86R
KIRKSVILLE     SUNNY     52  36  54 NW15G23   29.85R

$$

MOZ041-047>049-056>058-063>065-088>090-097-262300-
...EASTERN AND SOUTHERN MISSOURI...

CITY           SKY/WX    TMP DP  RH WIND       PRES   REMARKS
ST. LOUIS INTL PTSUNNY   41  29  62 CALM      29.89R
SPIRIT OF STL  MOSUNNY   45  32  60 CALM      29.88R
COLUMBIA       SUNNY     52  36  54 W21       29.85R
JEFFERSON CITY SUNNY     54  35  48 W21       29.85S
MEXICO         SUNNY     52  41  66 W14G20    29.85R
HANNIBAL       SUNNY     46  34  61 CALM      29.85R
ROLLA          SUNNY     51  34  52 W17       29.84R
LEBANON        SUNNY     55  32  41 W18G24    29.89R
OSAGE BEACH    SUNNY     55  34  44 W13G22    29.88R
SPRINGFIELD    SUNNY     57  33  40 W18G24    29.92F
BRANSON        SUNNY     59  32  36 W12       29.94F
NEVADA         SUNNY     61  36  39 W14       29.94S
JOPLIN         SUNNY     59  35  40 W12       29.96S
WEST PLAINS    SUNNY     53  30  41 W17G23    29.87F

$$

IAZ060-094-KSZ022-034>040-054-083-096-NEZ052-066-093-262300-
...KANSAS...SOUTHEAST NEBRASKA AND IOWA...

CITY           SKY/WX    TMP DP  RH WIND       PRES   REMARKS
TOPEKA         SUNNY     65  34  31 N12       29.93S
MANHATTAN      SUNNY     68  31  25 NW10G20   29.95S
EMPORIA        SUNNY     65  35  33 NW17G24   29.96R
CHANUTE        SUNNY     67  36  31 NW14      29.96R
WICHITA        MOSUNNY   74  33  22 NW14      29.98S
OMAHA          MOSUNNY   57  35  43 NW17      29.94R
LINCOLN        SUNNY     61  31  32 NW16      29.97R
FALLS CITY     SUNNY     62  31  31 NW13G25   29.93R
LAMONI         SUNNY     53  37  54 NW18      29.87R
DES MOINES     MOSUNNY   53  36  52 NW18G24   29.85R

$$



USA.gov is the U.S. government's official web portal to all federal, state and local government web resources and services.